| time (UTC) | temp C | wind direction | speed KPH | gust KPH | rain 1hr cm | rain 24hr cm | rain mn cm | humidity % | barometer mb |
| 20260508124530 | 7 | 167 | 1.6 | 4.8 | 0.00 | 0.00 | 0.00 | 49 | 1017.7 |
| 20260508123026 | 7 | 55 | 0.0 | 3.2 | 0.00 | 0.00 | 0.00 | 51 | 1017.5 |
| 20260508121547 | 7 | 68 | 0.0 | 3.2 | 0.00 | 0.00 | 0.00 | 54 | 1017.4 |
| 20260508120016 | 6 | 58 | 3.2 | 9.7 | 0.00 | 0.00 | 0.00 | 53 | 1017.0 |
| 20260508114512 | 6 | 350 | 0.0 | 6.4 | 0.00 | 0.00 | 0.00 | 54 | 1016.8 |
| 20260508113008 | 6 | 31 | 4.8 | 11.3 | 0.00 | 0.00 | 0.00 | 55 | 1016.5 |
| 20260508111503 | 5 | 92 | 6.4 | 17.7 | 0.00 | 0.00 | 0.00 | 55 | 1016.0 |
| 20260508110104 | 5 | 107 | 8.0 | 24.1 | 0.00 | 0.00 | 0.00 | 58 | 1015.8 |
| 20260508104556 | 4 | 72 | 8.0 | 24.1 | 0.00 | 0.00 | 0.00 | 60 | 1015.5 |
| 20260508103056 | 4 | 38 | 8.0 | 16.1 | 0.00 | 0.00 | 0.00 | 63 | 1015.2 |
| 20260508101552 | 4 | 325 | 9.7 | 19.3 | 0.00 | 0.00 | 0.00 | 63 | 1014.8 |
| 20260508100051 | 4 | 74 | 9.7 | 24.1 | 0.00 | 0.00 | 0.00 | 64 | 1014.6 |
| 20260508094604 | 4 | 51 | 11.3 | 25.7 | 0.00 | 0.00 | 0.00 | 65 | 1014.1 |
| 20260508093048 | 4 | 18 | 12.9 | 24.1 | 0.00 | 0.00 | 0.00 | 68 | 1014.0 |
| 20260508091546 | 4 | 92 | 8.0 | 24.1 | 0.00 | 0.00 | 0.00 | 71 | 1014.2 |
| 20260508090044 | 5 | 17 | 8.0 | 24.1 | 0.00 | 0.00 | 0.00 | 72 | 1014.4 |
| 20260508084542 | 5 | 340 | 11.3 | 22.5 | 0.00 | 0.00 | 0.00 | 71 | 1014.4 |
| 20260508083116 | 5 | 46 | 8.0 | 20.9 | 0.00 | 0.00 | 0.00 | 72 | 1014.0 |
| 20260508081542 | 5 | 13 | 11.3 | 29.0 | 0.00 | 0.00 | 0.00 | 70 | 1013.7 |
| 20260508080041 | 5 | 36 | 9.7 | 20.9 | 0.00 | 0.03 | 0.00 | 71 | 1013.5 |
| 20260508074537 | 5 | 63 | 9.7 | 22.5 | 0.00 | 0.03 | 0.00 | 70 | 1013.3 |
| 20260508073034 | 5 | 28 | 14.5 | 30.6 | 0.00 | 0.03 | 0.00 | 70 | 1013.4 |
| 20260508071534 | 5 | 56 | 11.3 | 22.5 | 0.00 | 0.03 | 0.00 | 73 | 1013.3 |
| 20260508070028 | 5 | 46 | 11.3 | 25.7 | 0.00 | 0.03 | 0.00 | 75 | 1013.1 |
| 20260508064542 | 5 | 52 | 12.9 | 35.4 | 0.00 | 0.03 | 0.00 | 75 | 1013.3 |
| 20260508063025 | 5 | 331 | 8.0 | 25.7 | 0.00 | 0.03 | 0.00 | 77 | 1013.4 |
| 20260508061525 | 6 | 41 | 8.0 | 25.7 | 0.00 | 0.03 | 0.00 | 77 | 1013.3 |
| 20260508060022 | 6 | 33 | 12.9 | 29.0 | 0.00 | 0.03 | 0.00 | 76 | 1013.3 |
| 20260508054521 | 6 | 39 | 12.9 | 24.1 | 0.00 | 0.03 | 0.00 | 76 | 1013.3 |
| 20260508053017 | 6 | 20 | 9.7 | 24.1 | 0.00 | 0.03 | 0.00 | 76 | 1013.3 |
| 20260508051516 | 6 | 42 | 16.1 | 30.6 | 0.00 | 0.03 | 0.00 | 77 | 1013.3 |
| 20260508050014 | 6 | 41 | 9.7 | 32.2 | 0.00 | 0.08 | 0.00 | 78 | 1013.0 |
| 20260508044510 | 6 | 58 | 12.9 | 33.8 | 0.00 | 0.08 | 0.00 | 80 | 1012.7 |
| 20260508043007 | 6 | 46 | 11.3 | 25.7 | 0.00 | 0.08 | 0.00 | 81 | 1012.4 |
| 20260508041512 | 6 | 21 | 17.7 | 35.4 | 0.00 | 0.08 | 0.00 | 81 | 1012.0 |
| 20260508040001 | 6 | 112 | 14.5 | 33.8 | 0.00 | 0.08 | 0.08 | 81 | 1012.4 |
| 20260508034600 | 7 | 53 | 12.9 | 33.8 | 0.00 | 0.08 | 0.08 | 81 | 1012.5 |
| 20260508033103 | 7 | 331 | 12.9 | 25.7 | 0.00 | 0.08 | 0.08 | 80 | 1012.4 |
| 20260508031600 | 7 | 51 | 9.7 | 24.1 | 0.00 | 0.08 | 0.08 | 81 | 1012.4 |
| 20260508030116 | 7 | 316 | 12.9 | 38.6 | 0.00 | 0.13 | 0.08 | 81 | 1012.3 |
| 20260508024604 | 7 | 74 | 12.9 | 37.0 | 0.00 | 0.13 | 0.08 | 80 | 1012.2 |
| 20260508023054 | 7 | 11 | 9.7 | 33.8 | 0.00 | 0.13 | 0.08 | 79 | 1011.9 |
| 20260508021553 | 7 | 329 | 9.7 | 20.9 | 0.00 | 0.13 | 0.08 | 77 | 1011.6 |
| 20260508020051 | 7 | 202 | 9.7 | 30.6 | 0.00 | 0.15 | 0.08 | 76 | 1011.3 |
| 20260508014550 | 7 | 97 | 9.7 | 30.6 | 0.00 | 0.15 | 0.08 | 76 | 1011.0 |
| 20260508013049 | 7 | 348 | 11.3 | 24.1 | 0.00 | 0.15 | 0.08 | 74 | 1010.8 |
| 20260508011600 | 7 | 98 | 8.0 | 25.7 | 0.00 | 0.15 | 0.08 | 74 | 1010.4 |
| 20260508010057 | 7 | 336 | 4.8 | 25.7 | 0.00 | 0.15 | 0.08 | 73 | 1010.1 |
| 20260508004556 | 7 | 246 | 12.9 | 33.8 | 0.00 | 0.15 | 0.08 | 73 | 1010.1 |
| 20260508003044 | 7 | 119 | 9.7 | 32.2 | 0.00 | 0.15 | 0.08 | 72 | 1010.1 |
| 20260508001543 | 8 | 52 | 9.7 | 30.6 | 0.00 | 0.15 | 0.08 | 70 | 1010.2 |
| 20260508000038 | 8 | 44 | 8.0 | 25.7 | 0.00 | 0.15 | 0.08 | 70 | 1009.9 |
| 20260507234536 | 8 | 286 | 14.5 | 25.7 | 0.00 | 0.15 | 0.08 | 70 | 1010.0 |
| 20260507233033 | 8 | 241 | 9.7 | 25.7 | 0.00 | 0.15 | 0.08 | 71 | 1010.0 |
| 20260507231531 | 8 | 339 | 9.7 | 45.1 | 0.00 | 0.15 | 0.08 | 73 | 1009.5 |
| 20260507230028 | 8 | 30 | 12.9 | 30.6 | 0.00 | 0.15 | 0.08 | 78 | 1009.4 |
| 20260507224526 | 9 | 360 | 9.7 | 35.4 | 0.00 | 0.15 | 0.08 | 77 | 1009.3 |
| 20260507223023 | 10 | 135 | 11.3 | 20.9 | 0.00 | 0.15 | 0.08 | 74 | 1009.0 |
| 20260507221522 | 10 | 288 | 9.7 | 29.0 | 0.00 | 0.15 | 0.08 | 75 | 1008.8 |
| 20260507220020 | 10 | 300 | 14.5 | 33.8 | 0.00 | 0.15 | 0.08 | 76 | 1008.6 |
| 20260507214522 | 10 | 237 | 8.0 | 25.7 | 0.00 | 0.15 | 0.08 | 79 | 1008.5 |
| 20260507213018 | 10 | 263 | 8.0 | 25.7 | 0.00 | 0.15 | 0.08 | 79 | 1008.9 |
| 20260507211512 | 11 | 209 | 9.7 | 29.0 | 0.00 | 0.15 | 0.08 | 76 | 1008.4 |
| 20260507210010 | 12 | 219 | 8.0 | 29.0 | 0.00 | 0.15 | 0.08 | 73 | 1007.9 |
| 20260507204509 | 13 | 202 | 11.3 | 20.9 | 0.00 | 0.15 | 0.08 | 72 | 1007.8 |
| 20260507203008 | 13 | 225 | 11.3 | 29.0 | 0.00 | 0.15 | 0.08 | 71 | 1007.7 |
| 20260507201508 | 13 | 283 | 11.3 | 37.0 | 0.00 | 0.15 | 0.08 | 71 | 1007.6 |
| 20260507200017 | 14 | 279 | 12.9 | 24.1 | 0.00 | 0.15 | 0.08 | 71 | 1007.6 |
| 20260507194506 | 14 | 287 | 11.3 | 29.0 | 0.00 | 0.15 | 0.08 | 71 | 1007.9 |
| 20260507193006 | 15 | 13 | 11.3 | 22.5 | 0.00 | 0.15 | 0.08 | 69 | 1008.0 |
| 20260507191503 | 16 | 146 | 8.0 | 24.1 | 0.00 | 0.15 | 0.08 | 71 | 1008.0 |
| 20260507190004 | 15 | 229 | 9.7 | 19.3 | 0.00 | 0.15 | 0.08 | 73 | 1008.1 |
| 20260507184558 | 15 | 313 | 8.0 | 22.5 | 0.00 | 0.15 | 0.08 | 78 | 1008.2 |
| 20260507183059 | 14 | 19 | 8.0 | 19.3 | 0.00 | 0.15 | 0.08 | 80 | 1008.3 |
| 20260507181555 | 14 | 271 | 8.0 | 19.3 | 0.00 | 0.15 | 0.08 | 84 | 1008.3 |
| 20260507180054 | 13 | 5 | 6.4 | 14.5 | 0.00 | 0.15 | 0.08 | 88 | 1008.2 |
| 20260507174553 | 13 | 328 | 9.7 | 17.7 | 0.00 | 0.15 | 0.08 | 91 | 1008.4 |
| 20260507173055 | 12 | 61 | 8.0 | 14.5 | 0.00 | 0.15 | 0.08 | 94 | 1008.3 |
| 20260507171555 | 12 | 26 | 8.0 | 14.5 | 0.00 | 0.15 | 0.08 | 96 | 1008.6 |
| 20260507170050 | 12 | 77 | 8.0 | 14.5 | 0.00 | 0.18 | 0.08 | 97 | 1008.7 |
| 20260507164548 | 11 | 57 | 9.7 | 16.1 | 0.00 | 0.18 | 0.08 | 97 | 1008.7 |
| 20260507163045 | 11 | 72 | 9.7 | 16.1 | 0.00 | 0.18 | 0.08 | 97 | 1008.8 |
| 20260507161543 | 11 | 46 | 6.4 | 14.5 | 0.00 | 0.18 | 0.08 | 96 | 1008.7 |
| 20260507160041 | 11 | 67 | 8.0 | 16.1 | 0.00 | 0.18 | 0.08 | 96 | 1008.7 |
| 20260507154540 | 12 | 44 | 8.0 | 16.1 | 0.00 | 0.18 | 0.08 | 96 | 1008.8 |
| 20260507153042 | 12 | 22 | 9.7 | 16.1 | 0.00 | 0.18 | 0.08 | 95 | 1008.7 |
| 20260507151532 | 13 | 63 | 8.0 | 14.5 | 0.00 | 0.18 | 0.08 | 95 | 1008.7 |
| 20260507150032 | 13 | 63 | 3.2 | 9.7 | 0.00 | 0.18 | 0.08 | 92 | 1008.8 |
| 20260507144530 | 14 | 90 | 4.8 | 9.7 | 0.00 | 0.18 | 0.08 | 91 | 1008.7 |
| 20260507143029 | 14 | 73 | 4.8 | 9.7 | 0.00 | 0.18 | 0.08 | 90 | 1008.9 |
| 20260507141528 | 14 | 30 | 1.6 | 8.0 | 0.00 | 0.18 | 0.08 | 91 | 1008.8 |
| 20260507140028 | 13 | 53 | 6.4 | 11.3 | 0.00 | 0.18 | 0.08 | 93 | 1008.8 |
| 20260507134527 | 13 | 44 | 6.4 | 11.3 | 0.00 | 0.18 | 0.08 | 92 | 1009.1 |
| 20260507133024 | 14 | 103 | 0.0 | 0.0 | 0.00 | 0.18 | 0.08 | 91 | 1009.0 |
| 20260507131525 | 13 | 103 | 0.0 | 6.4 | 0.00 | 0.18 | 0.08 | 92 | 1008.7 |
| 20260507130022 | 13 | 168 | 0.0 | 0.0 | 0.00 | 0.18 | 0.08 | 91 | 1009.5 |